N56907 KPWK-KPWK

Flight info

Callsign N56907
Flight time 0h 22m
Altitude 1500
Route DCT
Aircraft C172/L-SFG/C

Departure

Time 2026-04-26 02:02
Airport Chicago Executive Airport (KPWK)

Arrival

Time 2026-04-26 02:25
Airport Chicago Executive Airport (KPWK)
Time Latitude Longitude Altitude Speed Heading
2026-04-26 01:37 42.12143 -87.90861 646 ft 0 kts 26°
2026-04-26 01:53 42.12150 -87.90857 646 ft 4 kts 21°
2026-04-26 01:53 42.12157 -87.90853 647 ft 0 kts 20°
2026-04-26 01:54 42.12145 -87.90831 646 ft 8 kts 161°
2026-04-26 01:54 42.12092 -87.90805 645 ft 8 kts 154°
2026-04-26 01:54 42.12074 -87.90768 645 ft 3 kts 66°
2026-04-26 01:54 42.12084 -87.90753 646 ft 4 kts 29°
2026-04-26 01:55 42.12122 -87.90762 647 ft 8 kts 336°
2026-04-26 01:55 42.12176 -87.90791 649 ft 8 kts 338°
2026-04-26 01:55 42.12231 -87.90788 651 ft 7 kts 67°
2026-04-26 01:55 42.12245 -87.90741 651 ft 6 kts 67°
2026-04-26 01:56 42.12246 -87.90664 650 ft 8 kts 159°
2026-04-26 01:56 42.12144 -87.90611 649 ft 32 kts 159°
2026-04-26 01:56 42.11814 -87.90447 644 ft 65 kts 159°
2026-04-26 01:56 42.11391 -87.90167 714 ft 70 kts 155°
2026-04-26 01:57 42.10956 -87.89832 810 ft 72 kts 134°
2026-04-26 01:57 42.10877 -87.89163 883 ft 79 kts 85°
2026-04-26 01:57 42.11230 -87.88738 980 ft 79 kts 351°
2026-04-26 01:57 42.11736 -87.89025 1084 ft 80 kts 333°
2026-04-26 01:58 42.12223 -87.89408 1166 ft 79 kts 325°
2026-04-26 01:58 42.12622 -87.89849 1207 ft 78 kts 328°
2026-04-26 01:58 42.13156 -87.90076 1107 ft 85 kts 354°
2026-04-26 01:58 42.13421 -87.90581 1038 ft 78 kts 246°
2026-04-26 01:59 42.13027 -87.91025 929 ft 79 kts 185°
2026-04-26 01:59 42.12493 -87.90808 742 ft 77 kts 159°
2026-04-26 01:59 42.12047 -87.90570 648 ft 61 kts 161°
2026-04-26 01:59 42.11640 -87.90327 684 ft 68 kts 159°
2026-04-26 02:00 42.11198 -87.90056 783 ft 70 kts 155°
2026-04-26 02:00 42.10783 -87.89723 893 ft 71 kts 130°
2026-04-26 02:00 42.10598 -87.89077 982 ft 76 kts 105°
2026-04-26 02:00 42.10469 -87.88353 1083 ft 80 kts 99°
2026-04-26 02:01 42.10479 -87.87613 1196 ft 82 kts 49°
2026-04-26 02:01 42.10888 -87.87603 1191 ft 88 kts 337°
2026-04-26 02:02 42.11243 -87.87795 1284 ft 83 kts 339°
2026-04-26 02:02 42.11777 -87.88048 1365 ft 80 kts 339°
2026-04-26 02:03 42.12277 -87.88330 1465 ft 72 kts 332°
2026-04-26 02:03 42.12720 -87.88651 1454 ft 71 kts 327°
2026-04-26 02:03 42.13133 -87.89003 1345 ft 67 kts 327°
2026-04-26 02:03 42.13408 -87.89478 1134 ft 65 kts 278°
2026-04-26 02:04 42.13296 -87.90038 978 ft 61 kts 246°
2026-04-26 02:04 42.13093 -87.90526 839 ft 60 kts 234°
2026-04-26 02:04 42.12738 -87.90792 738 ft 62 kts 188°
2026-04-26 02:04 42.12278 -87.90670 689 ft 71 kts 164°
2026-04-26 02:05 42.11820 -87.90440 645 ft 69 kts 161°
2026-04-26 02:05 42.11389 -87.90194 724 ft 67 kts 158°
2026-04-26 02:05 42.11005 -87.89825 793 ft 70 kts 136°
2026-04-26 02:05 42.10796 -87.89236 849 ft 75 kts 102°
2026-04-26 02:06 42.10755 -87.88532 914 ft 82 kts 90°
2026-04-26 02:06 42.10766 -87.87791 1083 ft 76 kts 90°
2026-04-26 02:06 42.10781 -87.87402 1156 ft 76 kts 85°
2026-04-26 02:07 42.10838 -87.86882 1234 ft 78 kts 79°
2026-04-26 02:07 42.10964 -87.86173 1371 ft 79 kts 73°
2026-04-26 02:07 42.11103 -87.85453 1486 ft 82 kts 77°
2026-04-26 02:08 42.11230 -87.84710 1611 ft 83 kts 80°
2026-04-26 02:08 42.11293 -87.83922 1724 ft 86 kts 85°
2026-04-26 02:08 42.11370 -87.83118 1849 ft 88 kts 83°
2026-04-26 02:08 42.11426 -87.82294 1987 ft 91 kts 86°
2026-04-26 02:09 42.11489 -87.81423 2102 ft 95 kts 85°
2026-04-26 02:09 42.11562 -87.80524 2196 ft 99 kts 85°
2026-04-26 02:09 42.11608 -87.79582 2265 ft 103 kts 87°
2026-04-26 02:09 42.11681 -87.78628 2348 ft 105 kts 81°
2026-04-26 02:10 42.11774 -87.77655 2428 ft 108 kts 86°
2026-04-26 02:10 42.11831 -87.76660 2544 ft 105 kts 87°
2026-04-26 02:10 42.11803 -87.75682 2661 ft 102 kts 104°
2026-04-26 02:10 42.11536 -87.74779 2747 ft 104 kts 121°
2026-04-26 02:11 42.11142 -87.73965 2848 ft 104 kts 127°
2026-04-26 02:11 42.10751 -87.73263 2901 ft 107 kts 128°
2026-04-26 02:12 42.10695 -87.73161 2908 ft 107 kts 127°
2026-04-26 02:12 42.10289 -87.72360 3100 ft 97 kts 124°
2026-04-26 02:13 42.09886 -87.71574 3124 ft 106 kts 127°
2026-04-26 02:13 42.09424 -87.70788 3198 ft 107 kts 133°
2026-04-26 02:13 42.08915 -87.70103 3335 ft 103 kts 143°
2026-04-26 02:13 42.08288 -87.69616 3392 ft 108 kts 155°
2026-04-26 02:14 42.07594 -87.69160 3398 ft 114 kts 156°
2026-04-26 02:14 42.06844 -87.68698 3319 ft 123 kts 158°
2026-04-26 02:14 42.06072 -87.68267 3373 ft 119 kts 160°
2026-04-26 02:14 42.05325 -87.67881 3501 ft 109 kts 156°
2026-04-26 02:15 42.04912 -87.67143 3656 ft 106 kts 92°
2026-04-26 02:15 42.05357 -87.66509 3730 ft 106 kts 359°
2026-04-26 02:15 42.06045 -87.66917 3685 ft 113 kts 330°
2026-04-26 02:15 42.06761 -87.67426 3563 ft 113 kts 333°
2026-04-26 02:16 42.07451 -87.67866 3495 ft 110 kts 334°
2026-04-26 02:16 42.08143 -87.68307 3433 ft 109 kts 334°
2026-04-26 02:16 42.08825 -87.68752 3365 ft 109 kts 329°
2026-04-26 02:16 42.09391 -87.69398 3313 ft 107 kts 307°
2026-04-26 02:17 42.09800 -87.70246 3217 ft 110 kts 310°
2026-04-26 02:17 42.10338 -87.70999 3085 ft 113 kts 303°
2026-04-26 02:17 42.10548 -87.71967 3051 ft 108 kts 274°
2026-04-26 02:17 42.10579 -87.72641 2979 ft 110 kts 273°
2026-04-26 02:18 42.10592 -87.73342 2856 ft 115 kts 272°
2026-04-26 02:18 42.10627 -87.74326 2830 ft 108 kts 275°
2026-04-26 02:19 42.10667 -87.74984 2819 ft 104 kts 277°
2026-04-26 02:19 42.10747 -87.75965 2697 ft 108 kts 276°
2026-04-26 02:19 42.10791 -87.77009 2391 ft 110 kts 273°
2026-04-26 02:19 42.10824 -87.78015 2205 ft 105 kts 272°
2026-04-26 02:20 42.10852 -87.78992 2057 ft 101 kts 272°
2026-04-26 02:20 42.10858 -87.79317 2002 ft 100 kts 272°
2026-04-26 02:20 42.10869 -87.79698 1923 ft 101 kts 272°
2026-04-26 02:20 42.10883 -87.80653 1716 ft 106 kts 271°
2026-04-26 02:21 42.10889 -87.81623 1525 ft 102 kts 271°
2026-04-26 02:21 42.10884 -87.82557 1405 ft 98 kts 270°
2026-04-26 02:21 42.10884 -87.83460 1281 ft 91 kts 272°
2026-04-26 02:21 42.10914 -87.84252 1223 ft 82 kts 273°
2026-04-26 02:22 42.10933 -87.85031 1135 ft 82 kts 272°
2026-04-26 02:22 42.10942 -87.85777 1078 ft 79 kts 270°
2026-04-26 02:22 42.10938 -87.86527 1002 ft 79 kts 270°
2026-04-26 02:22 42.10941 -87.87248 965 ft 76 kts 276°
2026-04-26 02:23 42.11118 -87.87888 936 ft 73 kts 308°
2026-04-26 02:23 42.11504 -87.88291 910 ft 70 kts 331°
2026-04-26 02:23 42.11946 -87.88587 869 ft 70 kts 334°
2026-04-26 02:23 42.12359 -87.88878 828 ft 67 kts 332°
2026-04-26 02:24 42.12625 -87.89314 839 ft 65 kts 276°
2026-04-26 02:24 42.12721 -87.89935 849 ft 70 kts 290°
2026-04-26 02:24 42.12730 -87.90553 846 ft 69 kts 234°
2026-04-26 02:24 42.12261 -87.90671 689 ft 77 kts 157°
2026-04-26 02:25 42.11823 -87.90452 643 ft 56 kts 160°
2026-04-26 02:25 42.11514 -87.90295 646 ft 37 kts 162°
2026-04-26 02:25 42.11336 -87.90252 646 ft 21 kts 193°